Regional Weather Roundup
Issued by NWS Wakefield, VA

Home | Current Version | Previous Version | Text Only | Print | Product List | Glossary Off
Versions: 1 2 3 4 5 6 7 8 9 10 11 12 13 14 15 16 17 18 19 20 21 22 23 24 25 26 27

000
ASUS41 KAKQ 012215
RWRAKQ

REGIONAL WEATHER ROUNDUP
NATIONAL WEATHER SERVICE WAKEFIELD VA
500 PM EST THU DEC 01 2016

Note: "fair" indicates few or no clouds below 12,000 feet with no
significant weather and/or obstructions to visibility. * = Denotes
station may not report precipitation (e.g., rain,snow,etc.),
thunder or fog.

VAZ042-051-052>054-056-012300-
NORTHERN VIRGINIA

CITY           SKY/WX    TMP DP  RH WIND       PRES   REMARKS
WASH NATIONAL  PTCLDY    51  32  48 NW17G26   29.86R
DULLES         PTCLDY    48  29  47 NW13      29.86R
FORT BELVOIR   CLEAR     52  30  43 NW9       29.85R
QUANTICO       PTCLDY    53  31  42 N17G26    29.86R
FREDERICKSBRG* CLEAR     56  33  41 W8        29.83R
STAFFORD*      MOCLDY    52  33  48 N15       29.88R
WARRENTON      CLEAR     49  28  45 NW6       29.85R
CULPEPER*      CLEAR     52  32  46 CALM      29.86R
MANASSAS*      CLEAR     50  32  50 N13G21    29.85R
LEESBURG*      CLEAR     48  32  53 NW23G33   29.88R
WINCHESTER     CLOUDY    45  28  53 W15       29.88R
FRONT ROYAL*   CLOUDY    46  32  57 W9        29.87R
LURAY*         FAIR      46  32  57 W7        29.87R
$$

VAZ048-049-060>072-079>083-012300-
CENTRAL AND SOUTH CENTRAL VIRGINIA

CITY           SKY/WX    TMP DP  RH WIND       PRES   REMARKS
RICHMOND       PTCLDY    56  32  40 W8        29.83R
CHESTERFIELD*  FAIR      55  27  33 W3        29.86R
PETERSBURG*    CLEAR     53  33  46 CALM      29.86R
HANOVER        CLEAR     54  33  45 W6        29.85R
TAPPAHANNOCK*  CLEAR     56  30  37 W5        29.84R
QUINTON*       FAIR      56  34  44 W8        29.83R
CHARLOTTSVILLE CLEAR     52  30  43 NW6       29.86R
GORDONSVILLE*  FAIR      53  32  45 W6        29.85R
ORANGE*          N/A     52  32  46 SW8       29.87R
LOUISA*        CLEAR     55  36  47 NW7       29.84R
BUMPASS*       FAIR      54  32  44 CALM      29.84R
FARMVILLE*     CLEAR     55  34  45 W3        29.86R
CREWE*         FAIR      55  33  43 W3        29.85R
FORT PICKETT*  FAIR      53  26  36 W5        29.85R
CHASE CITY*    FAIR      55  30  39 W7        29.87R
CLARKSVILLE*   FAIR      54  34  47 CALM      29.86S
SOUTH HILL*    CLEAR     54  35  47 CALM      29.92R
LAWRENCEVILLE* FAIR      54  32  43 W3        29.86R
EMPORIA*       CLEAR     54  32  43 CALM      29.88R
$$

VAZ088>098-012300-
SOUTHEAST VIRGINIA

CITY           SKY/WX    TMP DP  RH WIND       PRES   REMARKS
NORFOLK        CLEAR     59  37  44 VRB3      29.83R
VIRGINIA BEACH PTCLDY    57  35  43 NW9       29.82R
NORFOLK NAVAL  CLEAR     58  37  45 NW8       29.85R
WEST POINT*    CLEAR     55  34  45 W3        29.85R
SALUDA*        FAIR      56  35  45 W7        29.82R
NEWPORT NEWS   CLEAR     57  37  47 NW6       29.84R
LANGLEY AFB    CLEAR     58  36  43 W8        29.83R
FORT EUSTIS    CLEAR     56  40  55 NW7       29.81R
WILLIAMSBURG*  CLEAR     57  37  47 W5        29.85R
HR EXEC AP*    FAIR      55  36  47 NW5       29.82R
FRANKLIN*      CLEAR     56  33  40 W9G16     29.85R
US460-WAKEFLD  CLEAR     56  37  49 W5        29.85R
$$

VAZ020-022-025-037-045-012300-
WEST CENTRAL AND SOUTHWEST VIRGINIA

CITY           SKY/WX    TMP DP  RH WIND       PRES   REMARKS
STAUNTON*      CLEAR     44  30  57 W7        29.90R
WAYNESBORO*    FAIR      45  28  51 W6G17     29.88R
HOT SPRINGS VA CLOUDY    34  28  80 W20G25    29.83R WCI  22
LYNCHBURG      CLEAR     50  30  46 W7        29.89R
DANVILLE       CLEAR     55  31  39 W8        29.89R
SOUTH BOSTON*  FAIR      56  31  38 NW7       29.87R
MARTINSVILLE   CLEAR     51  30  43 NW8       29.93R
ROANOKE        CLEAR     47  30  51 NW9       29.93R
BLACKSBURG     CLEAR     42  31  64 NW10G16   29.94R
DUBLIN*        CLEAR     45  30  57 W10       29.94R
MARION*        CLOUDY    43  31  62 W13       29.96R
HILLSVILLE*    CLEAR     42  31  64 W9G16     29.91R
RICHLANDS*     FAIR      40  30  67 W5        29.96R
WISE*          PTCLDY    41  28  60 W5        29.97S
ABINGDON*      PTCLDY    45  30  57 W9        29.98R
$$

MDZ021>025-VAZ099-100-012300-
SOUTHERN MARYLAND AND THE DELMARVA PENINSULA

CITY           SKY/WX    TMP DP  RH WIND       PRES   REMARKS
PATUXENT RIVER PTCLDY    54  36  50 W6        29.82R
BAY BRIDGE APT CLEAR     52  34  50 NW18      29.83R
LEONARDTOWN    CLEAR     52  36  54 W5        29.83R
DOVER          CLEAR     51  33  50 W13       29.80R
GEORGETOWN     CLEAR     53  34  48 VRB3      29.82R
EASTON         PTCLDY    52  32  46 N8        29.86R
CAMBRIDGE      PTCLDY    50  34  53 NW3       29.81R
SALISBURY      PTCLDY    52  36  54 CALM      29.81R
OCEAN CITY     CLEAR     52  35  52 NW5       29.81R
WALLOPS ISLAND CLEAR     53  41  63 NW3       29.82R
ACCOMACK*      CLEAR     52  43  70 CALM      29.82R
$$

NCZ012>017-030>032-012300-
NORTH CENTRAL AND EASTERN NORTH CAROLINA

CITY           SKY/WX    TMP DP  RH WIND       PRES   REMARKS
ROANOKE RAPIDS FAIR      57  34  41 CALM      29.86R
RALEIGH        PTCLDY    59  32  36 W5        29.88R
ELIZABETH CITY CLEAR     57  39  51 W8        29.83R
AHOSKIE*       CLEAR     58  36  43 CALM      29.86R
EDENTON*       CLEAR     63  39  41 W6        29.84R
CURRITUCK*     CLEAR     62  36  38 W7        29.84R
KILL DEVIL HLS CLEAR     60  46  61 CALM      29.82R
MANTEO         CLEAR     59  43  54 NW3       29.83R
CAPE HATTERAS  CLEAR     62  55  77 VRB3      29.83R
TARBORO*       NOT AVBL
GOLDSBORO      CLEAR     62  38  40 W9        29.85R
WASHINGTON     CLEAR     63  40  43 W6        29.84R
GREENVILLE     CLEAR     63  37  39 CALM      29.88R
NEW BERN       CLEAR     63  43  48 W5        29.86R
WILMINGTON     CLEAR     65  44  46 W10       29.86R
$$

VAZ048-012300-
ELSEWHERE

CITY           SKY/WX    TMP DP  RH WIND       PRES   REMARKS
HARRISBURG PA  CLOUDY    46  34  62 W16G26    29.82R
BALTIMORE      PTCLDY    48  30  49 W15G25    29.84R
ANNAPOLIS      CLEAR     53  33  46 NW10      29.84R
ANDREWS AFB    CLEAR     50  31  47 NW18      29.83R
PHILADELPHIA   CLOUDY    51  32  48 W20G29    29.81R
HENDERSON NC   CLEAR     54  30  40 CALM      29.87R
GREENSBORO     CLEAR     55  32  41 W7        29.88R
ROCKY MOUNT    CLEAR     60  34  37 W3        29.87R
$$

VAZ100-012300-
MARINE

STATION/POSITION TIME  TEMP    WIND        PRES    WAVE   SWELL
                       AIR SEA DIR/SP/G            HT/PER HT/PER
                 (UTC) (F)     (DEG/KT/KT) (MB)    (FT/S) (FT/S)
BRANDYWINE LGT   2142   52     320/ 15/ 18   N/A
CAPE MAY NJ      2142   51 52  310/ 16/ 22 1008.6R
LEWES DE         2142   54 53  300/  9/ 11 1009.1R
OCEAN-CITY-INLET 2142   54 54  310/  4/  5 1009.6R
WACHAPREAGUE VA  2142   55 59   CALM  /  2 1009.8R
THOMAS POINT MD  2200   52 51  320/ 10/ 12   N/A
GOOSES REEF MD   2200   54 52  310/ 10/ 14 1010.7    1/ 2
COVE POINT MD    2142   56     290/  7/  9 1010.1R
SOLOMONS ISLAND  2142   56 53  260/  5/  8   N/A
BISHOPS HEAD MD  2142   54 53  330/  6/  7 1009.9R
PINEY POINT MD   2142          330/  8/  9   N/A
POTOMAC MD       2200   55 53  320/  8/ 10 1009.0    1/ 2
CAMBRIDGE MD     2142   54 50  310/  5/  7 1008.9R
LEWISETTA VA     2142   57 54  300/  6/  7 1009.4R
RAPPAHANNOCK LGT 2142          360/  5/  6 1010.4R
STINGRAY PT      2200   56     320/  6/  8 1010.5
YORK RVR RNG VA  2142   59     310/  9/ 11 1009.6R
YORKTOWN VA      2142   59 54  280/  9/ 11 1009.6R
JAMESTOWN VA     2200   57 55  290/  8/ 10   N/A     0
DOMINION TERM VA 2142   58     320/  8/ 10 1010.0R
KIPTOPEKE VA     2142      55  290/ 12/ 14   N/A
CHES BAY BRIDGE  2142   58 55  300/ 12/ 14 1009.8R
CAPE HENRY VA    2142   58     280/  9/ 13   N/A
WILLOUBY STN VA  2142   59     300/ 12/ 13 1010.9R
S CRANEY ISL VA  2142   60     280/  7/  9 1009.7R
CAPE HENRY BUOY  2142      57                N/A     3/ 8
1ST LANDING BUOY 2200   58 55              1010.2    1/ 3
CAPE CHARLES BUO 2156      57                N/A     2/ 8
OFFSHORE WE BUOY 2151      57                N/A     4/ 8
64NM E OF VA BCH 2150   58 60  260/  6/  6 1009.2R   5/ 7   5/ 7
DUCK PIER NC     2142   60 58  260/  7/  9 1009.5R
44100 DUCK FRF   2135      58                N/A     3/ 8
OREGON INLET NC  2142   60 59  310/  5/  7 1009.8R
HATTERAS NC      2142   63 65  280/  5/  6 1009.7R
DIAMOND SHLS NC  2150   68 75  270/ 12/ 16 1009.8R   5/ 8   3/ 8
CAPE LOOKOUT NC  2100   65     240/  8/ 10 1009.6R
$$




USA.gov is the U.S. government's official web portal to all federal, state and local government web resources and services.